Regional Weather Roundup
Issued by NWS

Home | Current Version | Previous Version | Text Only | Print | Product List | Glossary Off
Versions: 1 2 3 4 5 6 7 8 9 10 11 12 13 14 15 16 17 18 19 20 21 22 23 24 25 26 27 28 29 30 31 32 33 34 35 36 37 38 39 40 41 42 43 44 45 46 47 48 49 50

000
ASUS43 KTOP 120659
RWRKS

WEATHER ROUNDUP FOR KANSAS
NATIONAL WEATHER SERVICE GOODLAND KS
100 AM CST TUE DEC 12 2017

NOTE:  "FAIR" INDICATES FEW OR NO CLOUDS BELOW 12,000 FEET WITH NO
SIGNIFICANT WEATHER AND/OR OBSTRUCTIONS TO VISIBILITY.

KSZ001>006-013>018-027>032-041>047-120800-
NORTHWEST KANSAS

CITY           SKY/WX    TMP DP  RH WIND       PRES   REMARKS
GOODLAND       CLOUDY    22  14  71 W7        30.42S
HAYS           CLEAR     29  24  82 NW9       30.41S
HILL CITY      CLEAR     28  22  78 NW10      30.42F WCI  19
RUSSELL        PTCLDY    29  26  89 NW7       30.39S
$$

KSZ061>065-074>080-084>089-120800-
SOUTHWEST KANSAS

CITY           SKY/WX    TMP DP  RH WIND       PRES   REMARKS
DODGE CITY     CLOUDY    29  21  72 NW9       30.42S
GARDEN CITY    CLOUDY    21  12  68 W8        30.44R
GREAT BEND     CLEAR     31  25  78 NW7       30.41R
LIBERAL        CLOUDY    24  11  57 NW9       30.46S
$$

KSZ066>073-081>083-090>101-120800-
SOUTHEAST KANSAS

CITY           SKY/WX    TMP DP  RH WIND       PRES   REMARKS
CHANUTE        CLEAR     37  28  70 N9        30.31R
COFFEYVILLE    CLEAR     41  29  62 N14       30.32R
HUTCHINSON     CLEAR     37  28  70 N14       30.36R WCI  28
MEDICINE LODGE   N/A     36  27  69 N9        30.39R
NEWTON         CLEAR     37  25  61 N15       30.35R WCI  28
PARSONS        CLEAR     39  28  64 N9        30.31R
WICHITA INTL   PTCLDY    38  29  70 N15       30.35S WCI  29
WICHITA JABRA  CLEAR     38  28  67 N14       30.35R WCI  30
WICHITA MCCONL CLEAR     38  26  64 N10       30.34R WCI  30
WINFIELD       CLEAR     39  29  67 N13       30.36R WCI  31
$$

KSZ007>012-019>026-033>040-048>060-102>105-120800-
NORTHEAST KANSAS

CITY           SKY/WX    TMP DP  RH WIND       PRES   REMARKS
CONCORDIA      CLEAR     33  23  66 N9        30.37F
EMPORIA        CLEAR     36  25  64 NW14G22   30.33R WCI  27
LAWRENCE       CLEAR     32  20  61 NW15      30.31R WCI  22
MANHATTAN      CLEAR     37  23  56 N6        30.37R
OLATHE IND     CLEAR     31  21  66 NW14      30.29R WCI  21
OLATHE EXE     CLEAR     32  23  69 N14G24    30.27R WCI  22
SALINA         PTCLDY    40  27  59 N14       30.39R WCI  32
TOPEKA BILLARD CLEAR     34  24  67 NW15G24   30.33R WCI  24
TOPEKA FORBES  CLEAR     36  25  64 N20G30    30.31R WCI  25
$$



USA.gov is the U.S. government's official web portal to all federal, state and local government web resources and services.